Weather in Oblepikha

Russia / Irkutsk Oblast     55°39′59″N   98°27′08″E
temp.,
°C
wind,
m/s
gust,
m/s
humid.,
%
clouds,
%
prec.,
mm/h
press.,
hPa
HPBL,
m
9 may, sun
sun923:00+6wsw228395 0.4 101230
02:00+5s1184100 0.4 101110
05:00+4nnw2297100 4.9 1011643
08:00+4wsw279599 6.4 1012527
11:00+5wnw4783100 0.1 10121032
14:00+4wnw4790100 0.3 1013928
17:00+7wnw467093 0.3 10131266
20:00+6nw3778100 0.6 1014716
10 may, mon
mon1023:00+3wnw249498 0.1 1016126
02:00+3wnw3697100 0.4 1017607
05:00+3wnw3697100 0.1 1017606
08:00+3wnw3798100 1.2 1018628
11:00+4w2797100 4.8 1020652
14:00+8nw2476100 5.6 1019825
17:00+10wnw346794 1.1 10191086
20:00+8w358085 3.1 1020139
11 may, tue
tue1123:00+5w389368 0.3 1022160
02:00+3wnw26965 0.3 1022117
05:00+2w11955 0.0 102210
08:00+6wnw11855 0.0 1021178
11:00+12ene12645 0.0 1020817
14:00+14ne225050 0.9 10181682
17:00+15ene223793 0.2 10162140
20:00+12ne235370 0.2 101667
12 may, wed
wed1223:00+6ne210755 0.0 1017206
02:00+4ene388620 0.0 1017189
05:00+3e278866 0.0 1017166
08:00+6ene467197 0.0 1017580
11:00+4e3693100 1.7 1018505
14:00+9e146671 2.2 10161187
17:00+12nw144059 0.1 10151949
20:00+9nne374396 0.1 1016291
13 may, thu
thu1323:00+4ne2106195 0.0 1018216
02:00+2ne226681 0.0 101940
05:000ene11721 0.0 102010
08:00+5ene11540 0.0 1021253
11:00+11ene11355 0.0 10201737
14:00+14nnw11305 0.0 10181986
17:00+14nw11290 0.0 10162006
20:00+11e114343 0.0 101513